Погода в Терсюкском

Россия / Курганская область     56°17′38″N   64°49′13″E
темп.,
°C
ветер,
м/с
пор.,
м/с
влажн.,
%
обл.,
%
осадки,
мм/ч
давл.,
гПа
погр.,
м
9 мая, вс
вс923:00+16с1136100 0.0 101511
02:00+13ссв2243100 0.0 101511
05:00+12всв3349100 0.0 101545
08:00+16всв2545100 0.0 1016229
11:00+21в4633100 0.0 1016968
14:00+23в5727100 0.0 10163011
17:00+21св5936100 0.0 10161987
20:00+18юв374888 0.0 1018203
10 мая, пн
пн1023:00+15всв3852100 0.0 1019238
02:00+13всв4105699 0.0 1020313
05:00+11св4105889 0.0 1022282
08:00+14всв584685 0.0 1023627
11:00+17всв6735100 0.0 10241355
14:00+19всв572778 0.0 10241738
17:00+19всв562992 0.0 10241654
20:00+15в2243100 0.0 102514
11 мая, вт
вт1123:00+11вюв335213 0.0 102650
02:00+10юв22540 0.0 102715
05:00+8юв11572 0.0 102810
08:00+14ю22424 0.0 1028309
11:00+18ююз2231100 0.0 10281388
14:00+20юз2227100 0.0 10271665
17:00+20зюз2328100 0.0 10271780
20:00+17юз1241100 0.0 102711
12 мая, ср
ср1223:00+14зсз11458 0.0 102710
02:00+12зсз22498 0.0 102713
05:00+10с3770100 0.0 1028145
08:00+14с5665100 0.0 1029503
11:00+16с573185 0.0 1029989
14:00+19с5630100 0.0 10281654
17:00+18ссз563797 0.0 10281466
20:00+14с3750100 0.0 1028272
13 мая, чт
чт1323:00+11ссв226063 0.0 102836
02:00+9ссв116734 0.0 102810
05:00+11сз1164100 0.0 102816
08:00+14з125697 0.0 1028292
11:00+19зсз234877 0.0 1026819
14:00+23сз264199 0.0 10252248
17:00+21ссв365069 0.0 1025987
20:00+18в11645 0.0 102511